Wind_Speed
25 24 29 29 27 25 24 23 22 21 20 18 16 14 14 14 13 12 12 12 14 17 18 18 18 17 18 16 18 19 18 17 17 18 18 20 21 20 17 16 16 16 15
30 28 31 31 28 26 26 25 22 20 19 16 14 13 13 13 13 13 14 17 19 20 21 19 19 20 20 17 18 18 15 15 16 19 19 19 20 17 16 16 16 15 15
30 32 33 32 30 28 27 27 24 20 17 14 12 13 14 15 15 17 18 20 21 22 22 21 20 21 20 18 17 16 15 16 16 18 19 21 21 17 15 15 15 15 15
31 32 33 30 29 29 28 26 20 18 15 12 13 15 16 17 19 20 20 20 21 22 23 22 20 20 18 18 17 19 21 19 16 16 18 20 21 20 18 16 15 15 15
31 32 31 30 29 28 27 24 21 17 13 12 13 15 17 18 20 21 20 21 22 23 24 23 20 19 16 16 16 15 17 17 15 16 18 19 19 19 19 19 17 17 16
31 31 31 29 30 29 27 24 20 16 11 12 14 16 18 19 20 21 20 21 22 23 24 24 20 18 15 16 16 15 14 15 13 14 15 16 16 15 15 16 16 16 16
29 29 30 28 26 27 24 22 19 11 11 13 14 16 18 19 20 21 20 19 20 21 22 21 20 17 13 14 14 14 12 11 9 10 11 11 11 12 13 14 14 16 16
27 30 30 30 25 23 21 19 9 10 12 14 15 17 18 19 20 20 19 19 19 19 18 17 15 13 11 10 10 10 10 10 8 8 9 9 10 12 13 14 14 16 17
28 31 28 30 25 19 18 14 12 12 14 15 16 17 18 19 19 19 17 17 16 15 14 13 12 10 7 6 8 7 7 9 9 7 7 9 12 12 14 15 17 18 19
29 28 29 28 28 17 15 12 11 13 15 16 18 19 19 18 18 17 16 16 15 13 11 10 9 7 5 4 6 6 6 7 8 10 12 12 13 15 15 18 20 20 21
22 26 31 34 30 23 17 15 15 16 17 19 20 20 19 18 17 16 15 14 14 12 10 9 7 3 3 2 3 5 8 8 6 9 12 11 11 11 16 18 21 23 22
22 32 34 23 19 19 17 16 17 18 18 19 20 20 16 16 14 14 13 13 11 9 7 4 1 1 2 3 5 8 11 10 12 13 13 13 13 10 16 19 21 22 24
25 24 34 27 21 22 19 18 18 19 21 21 19 17 14 12 11 9 8 7 7 7 4 2 4 4 3 5 7 10 13 13 14 15 14 14 12 12 15 19 21 22 21
32 37 23 21 21 18 17 19 20 21 22 19 18 15 10 9 7 5 6 4 6 5 4 3 3 4 4 8 11 11 13 14 16 13 12 13 15 17 16 14 17 18 17
40 36 26 21 20 18 19 20 22 22 19 16 14 11 9 7 4 3 5 6 6 6 5 4 4 6 8 9 9 11 13 15 17 18 19 19 19 17 13 10 13 13 13
35 26 21 18 19 19 20 22 21 21 18 14 10 9 6 5 5 5 6 7 6 6 5 5 5 6 7 9 12 13 13 14 16 18 19 18 16 13 11 6 5 7 8
28 23 23 20 19 21 22 20 19 17 15 13 11 8 9 8 7 8 8 7 6 5 3 4 5 7 10 11 11 11 12 14 15 16 17 16 11 8 4 5 4 5 6
23 24 24 24 21 21 21 18 16 15 14 13 11 11 10 8 7 8 8 7 5 2 4 7 10 11 11 12 12 12 12 14 12 12 13 11 7 3 5 4 2 3 5
24 25 26 25 22 23 19 17 15 15 14 14 13 12 9 8 10 10 9 7 3 4 8 10 11 12 12 12 13 14 15 8 6 11 9 8 7 4 4 7 6 6 8
26 25 26 26 24 23 20 18 19 20 18 15 14 11 9 13 12 10 7 3 4 9 11 12 12 13 13 15 16 19 14 2 18 5 8 16 11 14 14 14 15 15 14
30 28 31 29 29 25 25 25 24 21 18 16 13 11 13 13 12 8 4 5 9 11 12 13 13 13 15 18 21 23 14 6 16 7 30 15 21 15 14 18 17 16 15
32 31 35 31 31 30 25 23 20 20 17 14 13 13 12 12 9 5 6 10 11 12 14 15 14 15 17 20 20 20 10 17 5 14 15 21 14 12 21 18 18 18 17
36 34 34 31 31 26 26 25 22 21 17 19 18 16 12 8 6 8 9 10 11 12 13 17 18 18 18 20 19 17 9 7 22 14 22 13 19 23 23 20 19 17 17
39 37 33 32 32 30 29 29 24 22 24 22 17 13 11 10 10 11 11 8 10 13 16 19 19 18 19 21 22 20 17 18 19 17 16 23 22 22 21 23 19 18 18
37 40 36 33 33 28 27 25 20 19 16 15 15 16 14 14 14 10 9 8 10 13 19 19 17 19 23 24 23 21 21 20 21 22 26 21 28 26 25 19 19 20 18
36 37 38 37 32 26 27 26 23 17 15 16 18 19 18 18 16 15 11 11 16 27 20 18 21 23 25 25 23 22 22 22 22 21 26 28 30 30 21 19 17 19 17
Wind_Direction
173 165 164 165 162 158 152 144 138 134 128 125 124 122 121 119 116 112 105 100 97 92 89 89 87 86 86 89 89 88 76 72 70 69 69 55 46 38 41 45 44 44 42
165 164 167 166 163 161 156 145 138 137 132 130 131 129 127 125 121 112 107 103 99 96 93 89 88 88 88 87 82 78 71 70 71 63 54 50 39 40 39 39 40 41 43
165 163 167 167 164 162 154 144 144 141 135 134 133 129 125 120 117 112 105 102 99 93 91 90 89 88 86 78 72 75 73 72 79 55 48 41 41 40 37 34 33 36 37
166 166 167 166 166 163 154 143 143 138 138 131 131 126 121 118 113 108 104 100 97 96 94 93 92 89 86 82 74 76 79 78 66 58 57 51 45 40 37 37 29 25 26
168 168 170 168 164 159 153 143 146 139 133 133 130 123 119 116 111 107 104 103 100 99 98 94 93 93 85 82 83 73 73 73 67 64 57 53 51 47 40 39 35 30 28
166 169 168 170 164 158 146 146 138 132 131 135 128 123 122 117 112 108 107 106 105 103 100 98 94 95 87 84 84 81 73 72 67 54 42 51 51 47 38 31 27 24 21
165 168 166 166 160 151 143 138 130 134 137 136 131 127 122 118 114 110 110 107 106 105 104 106 103 85 86 84 84 81 78 75 65 42 40 39 34 24 21 15 9 7 5
167 166 166 157 156 145 137 119 150 158 143 136 131 127 122 119 114 113 112 108 105 106 106 101 100 101 78 83 76 75 69 60 43 39 36 23 21 10 2 358 355 352 348
167 169 159 149 146 147 126 140 161 151 143 136 130 127 122 118 114 111 108 106 104 106 106 105 104 102 89 57 68 65 54 40 27 28 11 354 346 345 343 342 340 342 342
171 171 159 150 145 138 143 158 150 146 143 137 136 128 125 118 115 115 112 111 109 113 111 105 104 105 101 62 38 38 33 11 356 348 347 349 348 335 329 328 327 327 330
165 155 142 132 140 157 165 156 153 148 148 141 131 131 128 123 122 120 117 115 123 118 115 110 104 109 114 94 340 339 337 330 331 326 325 326 333 329 322 326 325 328 331
160 138 126 139 138 164 166 162 156 154 150 143 139 140 134 132 127 129 124 124 131 141 139 116 73 315 251 288 299 315 323 320 317 315 315 311 316 323 318 322 322 323 328
115 136 143 134 151 171 175 163 158 156 154 151 150 150 152 146 143 141 143 137 148 173 176 210 194 222 263 297 306 307 307 304 305 303 302 299 303 314 315 314 314 324 330
123 137 152 166 182 180 173 163 165 165 162 161 164 162 172 169 162 132 136 159 175 199 211 184 220 252 273 312 303 296 292 296 297 295 289 288 294 300 306 304 322 332 333
151 154 166 173 193 181 172 169 171 170 171 172 176 175 181 182 193 195 214 215 222 198 199 226 251 273 282 293 298 304 307 301 296 293 293 294 298 301 305 313 327 325 322
163 178 190 187 186 182 176 174 177 178 181 180 176 193 200 224 230 229 224 213 220 228 238 256 271 287 313 327 325 320 313 305 300 299 299 301 302 299 310 311 290 302 320
184 183 185 185 183 176 178 180 185 185 191 189 197 207 215 212 216 219 227 229 211 207 233 281 315 325 318 318 322 321 315 311 312 312 317 326 332 290 255 233 287 310 320
197 199 191 192 187 185 188 190 190 194 198 203 210 208 191 191 207 216 211 201 199 247 323 325 315 316 328 330 337 340 339 327 322 330 340 359 11 227 207 243 263 282 302
195 193 195 198 196 198 204 201 198 201 205 209 208 190 199 206 201 204 202 207 222 313 318 324 328 329 336 348 355 349 346 334 3 329 328 338 3 0 297 290 288 292 294
199 200 209 205 206 206 204 201 204 207 208 202 196 219 218 202 202 211 213 227 316 334 336 334 331 342 348 352 351 349 355 226 337 317 1 335 314 315 312 303 299 296 292
205 208 212 211 207 206 205 204 205 210 208 209 222 224 198 203 214 214 250 309 329 334 337 335 337 340 345 346 346 342 348 277 319 241 333 336 330 317 317 313 306 297 291
208 212 211 210 209 208 212 215 222 220 220 226 226 219 218 213 214 236 291 322 325 329 335 335 330 331 335 338 338 341 332 320 306 294 317 325 334 296 316 310 303 298 293
210 209 211 213 213 215 216 218 216 215 223 222 224 221 215 210 238 262 282 302 317 329 333 331 325 326 330 329 327 327 323 294 307 311 318 326 324 316 311 306 301 289 287
211 210 213 215 217 218 217 218 220 230 238 234 227 212 204 219 233 245 259 285 316 321 322 323 320 320 319 316 315 315 310 305 307 309 314 313 315 320 307 302 293 291 289
216 215 216 217 221 220 223 224 228 234 230 219 206 206 212 224 227 245 263 273 301 316 315 306 307 310 313 315 315 314 311 308 306 304 308 312 312 312 311 287 286 287 287
219 223 222 224 224 218 228 220 222 224 218 213 211 209 219 223 228 241 259 283 312 307 296 296 305 309 309 311 311 310 307 304 301 301 302 308 312 313 310 295 281 279 286
Height
1515 1519 1522 1526 1528 1530 1531 1535 1537 1539 1542 1544 1546 1548 1547 1548 1549 1551 1550 1552 1554 1554 1553 1553 1552 1553 1553 1555 1553 1556 1557 1560 1559 1558 1558 1556 1556 1556 1555 1555 1553 1556 1555
1511 1517 1522 1525 1527 1530 1531 1533 1539 1543 1543 1546 1548 1548 1549 1549 1551 1552 1551 1552 1554 1555 1554 1555 1555 1555 1555 1557 1556 1557 1559 1560 1561 1560 1561 1559 1558 1558 1557 1556 1556 1557 1556
1513 1517 1521 1523 1525 1530 1531 1531 1536 1543 1545 1547 1550 1549 1549 1549 1552 1553 1553 1554 1555 1555 1555 1557 1558 1558 1558 1558 1558 1559 1562 1561 1563 1563 1562 1561 1559 1559 1559 1557 1558 1559 1557
1515 1518 1521 1525 1527 1529 1532 1532 1540 1542 1547 1549 1550 1549 1550 1551 1552 1553 1554 1556 1557 1557 1559 1558 1558 1560 1560 1560 1562 1562 1563 1564 1564 1565 1564 1563 1561 1561 1561 1559 1560 1560 1559
1515 1518 1523 1526 1529 1531 1534 1533 1540 1544 1547 1550 1550 1549 1550 1553 1552 1553 1556 1559 1559 1561 1561 1561 1560 1561 1562 1562 1563 1565 1565 1565 1566 1566 1565 1564 1564 1564 1563 1560 1562 1562 1559
1515 1520 1525 1529 1531 1532 1530 1537 1539 1545 1547 1550 1551 1550 1552 1553 1553 1554 1558 1560 1561 1562 1562 1564 1563 1562 1564 1564 1566 1567 1567 1566 1567 1567 1567 1566 1566 1566 1564 1562 1563 1564 1561
1516 1522 1526 1529 1533 1533 1535 1537 1540 1545 1548 1550 1551 1552 1553 1554 1555 1556 1560 1562 1563 1564 1564 1567 1567 1564 1567 1567 1567 1568 1568 1567 1569 1567 1568 1567 1565 1566 1565 1563 1564 1564 1563
1517 1521 1525 1527 1533 1535 1537 1537 1545 1549 1550 1550 1552 1554 1555 1557 1558 1559 1561 1563 1564 1565 1566 1569 1569 1570 1569 1570 1569 1568 1569 1570 1570 1568 1567 1568 1566 1566 1565 1564 1562 1563 1563
1519 1521 1523 1522 1531 1537 1538 1544 1548 1550 1551 1551 1554 1556 1558 1560 1560 1561 1563 1564 1566 1567 1566 1568 1570 1571 1571 1570 1570 1570 1571 1571 1571 1569 1568 1567 1567 1564 1564 1564 1563 1561 1561
1522 1523 1523 1529 1533 1534 1542 1546 1548 1550 1552 1553 1555 1557 1559 1562 1562 1562 1563 1565 1567 1567 1568 1569 1571 1572 1572 1570 1571 1571 1570 1572 1570 1570 1567 1566 1565 1565 1562 1562 1562 1559 1559
1524 1520 1521 1530 1537 1541 1545 1547 1549 1552 1553 1555 1556 1558 1561 1562 1562 1563 1565 1565 1567 1569 1570 1570 1571 1573 1572 1572 1571 1571 1570 1571 1570 1569 1567 1565 1564 1562 1560 1561 1559 1558 1557
1525 1525 1529 1534 1540 1543 1546 1547 1549 1551 1554 1556 1557 1560 1562 1563 1564 1564 1566 1568 1569 1571 1571 1571 1570 1572 1573 1571 1573 1571 1570 1569 1568 1568 1566 1565 1562 1563 1560 1558 1558 1556 1556
1521 1528 1532 1536 1539 1543 1546 1548 1551 1552 1553 1556 1558 1561 1563 1564 1565 1567 1568 1570 1570 1572 1571 1571 1570 1572 1571 1571 1571 1571 1570 1568 1567 1566 1564 1564 1561 1561 1559 1556 1556 1555 1554
1532 1533 1538 1541 1544 1545 1547 1548 1551 1553 1554 1556 1559 1560 1564 1564 1565 1569 1569 1570 1571 1571 1571 1570 1570 1572 1570 1570 1569 1570 1568 1566 1565 1564 1563 1562 1560 1558 1557 1554 1554 1553 1551
1530 1533 1539 1540 1544 1545 1547 1549 1551 1553 1555 1557 1559 1561 1564 1565 1567 1567 1569 1570 1571 1572 1571 1570 1570 1570 1569 1568 1568 1567 1565 1563 1563 1562 1560 1559 1557 1556 1555 1553 1552 1551 1549
1534 1537 1541 1543 1544 1545 1548 1550 1552 1554 1554 1557 1558 1563 1564 1565 1566 1567 1568 1569 1570 1571 1570 1569 1569 1569 1568 1567 1565 1565 1563 1562 1561 1559 1556 1556 1554 1553 1552 1552 1551 1549 1548
1533 1537 1539 1542 1543 1544 1548 1550 1553 1552 1556 1556 1560 1562 1564 1566 1565 1567 1567 1569 1568 1570 1568 1567 1568 1567 1566 1565 1563 1564 1562 1561 1558 1555 1553 1552 1551 1550 1549 1549 1549 1547 1547
1532 1534 1538 1540 1542 1545 1548 1550 1551 1554 1556 1557 1560 1562 1563 1565 1565 1566 1566 1567 1567 1567 1567 1567 1566 1565 1563 1562 1561 1561 1560 1557 1555 1553 1552 1551 1550 1549 1548 1548 1547 1546 1545
1532 1533 1536 1539 1542 1545 1547 1550 1552 1554 1556 1558 1560 1562 1563 1563 1564 1566 1565 1566 1566 1567 1567 1565 1563 1562 1561 1560 1558 1559 1557 1555 1553 1552 1551 1551 1550 1550 1548 1547 1546 1545 1544
1532 1534 1536 1539 1541 1545 1547 1549 1550 1554 1555 1557 1559 1561 1561 1562 1563 1565 1564 1565 1565 1565 1564 1563 1561 1559 1558 1556 1556 1555 1553 1552 1551 1549 1549 1549 1548 1547 1546 1545 1544 1542 1541
1531 1534 1536 1538 1540 1542 1545 1547 1549 1551 1554 1555 1558 1559 1560 1561 1562 1562 1563 1563 1563 1562 1561 1560 1558 1557 1555 1554 1553 1552 1550 1550 1548 1546 1546 1546 1545 1545 1543 1541 1539 1538 1537
1529 1532 1535 1537 1539 1541 1543 1546 1548 1550 1552 1554 1556 1557 1558 1559 1560 1560 1561 1561 1560 1559 1558 1557 1556 1555 1554 1553 1552 1550 1549 1548 1545 1545 1543 1542 1541 1541 1540 1538 1535 1533 1531
1525 1527 1532 1535 1538 1539 1542 1544 1546 1547 1550 1552 1553 1553 1555 1557 1559 1560 1560 1559 1557 1556 1556 1555 1554 1553 1552 1551 1550 1551 1547 1545 1543 1540 1540 1537 1538 1537 1535 1533 1531 1529 1527
1519 1524 1529 1531 1534 1537 1540 1541 1543 1545 1547 1548 1551 1552 1554 1556 1558 1558 1557 1556 1555 1555 1554 1553 1552 1551 1551 1549 1548 1546 1545 1543 1540 1534 1535 1534 1534 1533 1532 1529 1527 1525 1523
1518 1522 1526 1529 1531 1535 1536 1538 1542 1544 1546 1548 1549 1551 1553 1554 1554 1555 1554 1555 1553 1553 1553 1551 1550 1549 1547 1546 1544 1542 1540 1538 1537 1534 1527 1528 1527 1527 1525 1523 1523 1521 1519
1516 1520 1524 1526 1530 1532 1534 1537 1540 1542 1544 1546 1548 1549 1550 1551 1551 1553 1552 1554 1554 1552 1548 1548 1547 1545 1544 1542 1540 1537 1535 1534 1531 1530 1525 1523 1520 1518 1519 1518 1518 1517 1515